TimeCDT,TemperatureF,Dew PointF,Humidity,Sea Level PressureIn,VisibilityMPH,Wind Direction,Wind SpeedMPH,Gust SpeedMPH,PrecipitationIn,Events,Conditions,WindDirDegrees,DateUTC
12:52 AM,37.0,26.1,65,29.94,10.0,North,8.1,-,N/A,,Partly Cloudy,350,2013-10-23 05:52:00
1:52 AM,36.0,27.0,70,29.94,10.0,North,8.1,-,N/A,,Clear,360,2013-10-23 06:52:00
2:52 AM,35.1,27.0,72,29.94,10.0,NW,8.1,-,N/A,,Clear,320,2013-10-23 07:52:00
3:52 AM,34.0,27.0,75,29.93,10.0,NNW,6.9,-,N/A,,Clear,330,2013-10-23 08:52:00
4:52 AM,34.0,27.0,75,29.94,10.0,NW,6.9,-,N/A,,Clear,310,2013-10-23 09:52:00
5:52 AM,32.0,27.0,82,29.96,10.0,WNW,8.1,-,N/A,,Clear,300,2013-10-23 10:52:00
6:52 AM,32.0,26.1,79,29.96,10.0,NW,6.9,-,N/A,,Partly Cloudy,310,2013-10-23 11:52:00
7:52 AM,32.0,25.0,75,29.98,10.0,WNW,8.1,-,N/A,,Partly Cloudy,300,2013-10-23 12:52:00
8:52 AM,36.0,25.0,64,29.99,10.0,NW,9.2,-,N/A,,Partly Cloudy,310,2013-10-23 13:52:00
9:52 AM,37.9,25.0,60,29.99,10.0,NW,10.4,-,N/A,,Partly Cloudy,310,2013-10-23 14:52:00
10:52 AM,39.9,21.0,47,30.00,10.0,WNW,11.5,18.4,N/A,,Scattered Clouds,290,2013-10-23 15:52:00
11:52 AM,41.0,21.0,45,29.99,10.0,West,10.4,-,N/A,,Mostly Cloudy,280,2013-10-23 16:52:00
12:52 PM,41.0,19.9,43,29.99,10.0,WNW,9.2,-,N/A,,Mostly Cloudy,300,2013-10-23 17:52:00
1:52 PM,41.0,19.9,43,29.97,10.0,North,5.8,-,N/A,,Mostly Cloudy,350,2013-10-23 18:52:00
2:52 PM,43.0,19.0,38,29.97,10.0,NW,13.8,-,N/A,,Mostly Cloudy,310,2013-10-23 19:52:00
3:52 PM,44.1,18.0,35,29.97,10.0,WNW,15.0,-,N/A,,Mostly Cloudy,300,2013-10-23 20:52:00
4:52 PM,43.0,19.0,38,29.98,10.0,West,9.2,19.6,N/A,,Mostly Cloudy,280,2013-10-23 21:52:00
5:52 PM,42.1,21.0,43,29.98,10.0,West,10.4,-,N/A,,Mostly Cloudy,280,2013-10-23 22:52:00
6:52 PM,41.0,23.0,49,30.00,10.0,WNW,10.4,-,N/A,,Overcast,290,2013-10-23 23:52:00
7:52 PM,41.0,24.1,51,30.00,10.0,WNW,6.9,-,N/A,,Overcast,290,2013-10-24 00:52:00
8:52 PM,39.0,27.0,62,30.01,10.0,West,9.2,-,N/A,,Overcast,280,2013-10-24 01:52:00
9:52 PM,37.9,27.0,65,30.02,10.0,WNW,8.1,-,N/A,,Overcast,300,2013-10-24 02:52:00
10:52 PM,37.9,26.1,62,30.02,10.0,WNW,10.4,-,N/A,,Overcast,290,2013-10-24 03:52:00
11:52 PM,37.9,26.1,62,30.01,10.0,WNW,9.2,-,N/A,,Overcast,300,2013-10-24 04:52:00